Language: 


Des rapports , des résumés tant et plus, au choix de chacun....


Données statistiques de la station
Quotidien Rapport Novembre 21, 2017 Unités:  Métrique    Anglais   les deux
« Précédent Jour
Suivant Jour »
Quotidien Hebdomadaire Mensuel Annuel Actuel
  Haut: Bas: Moyen:
Température: 12.7 °C 11.0 °C 12.1 °C
Pt de rosée: 13.0 °C 10.0 °C 11.7 °C
Humidité: 98 % 90 % 95 %
Vitesse du vent: 33.1 km/h 1.4 km/h 13.3 km/h
Rafales: 33.1 km/h - -
Vent:- - WSW
Pression: 1014.1 hPa 1008.0 hPa -
Précipitation: 4.1 mm    
Historical Graphs
 
 
Données statistiques pour Novembre 21, 2017
Heure Température Point de rosée Pression Vent Vitesse du vent Refales Humidité Pluie (taux horaire)
00:00 12.4 °C 13.0 °C 1013.1 hPa West 16.3 km/h 16.3 km/h 98 % 0.8 mm
00:05 12.4 °C 13.0 °C 1013.1 hPa WSW 13.0 km/h 17.7 km/h 98 % 0.8 mm
00:15 12.4 °C 13.0 °C 1013.1 hPa West 11.9 km/h 15.8 km/h 98 % 0.5 mm
00:30 12.5 °C 13.0 °C 1013.1 hPa West 13.0 km/h 19.8 km/h 98 % 1.0 mm
00:35 12.5 °C 13.0 °C 1013.1 hPa West 10.5 km/h 19.1 km/h 98 % 1.0 mm
00:40 12.5 °C 13.0 °C 1013.1 hPa WSW 16.3 km/h 19.1 km/h 98 % 0.8 mm
00:55 12.4 °C 13.0 °C 1012.1 hPa West 14.8 km/h 15.4 km/h 98 % 1.0 mm
01:00 12.4 °C 13.0 °C 1013.1 hPa West 10.8 km/h 16.6 km/h 98 % 0.8 mm
01:05 12.4 °C 13.0 °C 1013.1 hPa WSW 2.1 km/h 16.6 km/h 98 % 1.0 mm
01:15 12.4 °C 13.0 °C 1012.1 hPa WSW 10.5 km/h 10.5 km/h 98 % 1.3 mm
01:23 12.3 °C 13.0 °C 1012.1 hPa WSW 14.0 km/h 14.0 km/h 98 % 1.3 mm
01:28 12.3 °C 13.0 °C 1013.1 hPa WSW 9.7 km/h 15.8 km/h 98 % 1.3 mm
01:33 12.3 °C 13.0 °C 1013.1 hPa West 15.8 km/h 15.8 km/h 98 % 1.5 mm
01:34 12.3 °C 13.0 °C 1013.1 hPa WSW 9.7 km/h 15.8 km/h 98 % 1.5 mm
01:35 12.3 °C 13.0 °C 1013.1 hPa WSW 11.6 km/h 15.8 km/h 98 % 1.5 mm
01:40 12.4 °C 13.0 °C 1013.1 hPa SW 9.7 km/h 15.8 km/h 98 % 1.5 mm
01:50 12.4 °C 13.0 °C 1013.1 hPa West 12.6 km/h 19.8 km/h 98 % 1.5 mm
01:55 12.4 °C 13.0 °C 1013.1 hPa West 9.7 km/h 16.6 km/h 98 % 1.3 mm
02:05 12.4 °C 13.0 °C 1013.1 hPa WSW 10.5 km/h 19.8 km/h 98 % 1.3 mm
02:15 12.4 °C 13.0 °C 1013.1 hPa West 12.6 km/h 20.6 km/h 98 % 0.8 mm
02:20 12.4 °C 13.0 °C 1013.1 hPa West 10.1 km/h 20.9 km/h 98 % 0.5 mm
02:30 12.5 °C 13.0 °C 1013.1 hPa WSW 13.7 km/h 21.2 km/h 98 % 0.8 mm
02:35 12.5 °C 13.0 °C 1013.1 hPa WSW 17.7 km/h 21.2 km/h 98 % 0.8 mm
02:41 12.4 °C 13.0 °C 1013.1 hPa WSW 10.5 km/h 17.7 km/h 98 % 1.0 mm
02:46 12.5 °C 13.0 °C 1013.1 hPa WSW 10.5 km/h 19.5 km/h 98 % 1.0 mm
03:07 12.4 °C 13.0 °C 1014.1 hPa WSW 11.1 km/h 21.2 km/h 98 % 1.0 mm
03:12 12.4 °C 13.0 °C 1013.1 hPa West 10.1 km/h 20.6 km/h 98 % 1.0 mm
03:17 12.4 °C 13.0 °C 1013.1 hPa West 12.2 km/h 20.6 km/h 98 % 1.0 mm
03:22 12.4 °C 13.0 °C 1013.1 hPa WSW 10.1 km/h 16.9 km/h 98 % 1.0 mm
03:27 12.4 °C 13.0 °C 1013.1 hPa WSW 16.9 km/h 16.9 km/h 98 % 0.8 mm
03:37 12.4 °C 13.0 °C 1013.1 hPa West 16.3 km/h 24.5 km/h 98 % 0.5 mm
03:42 12.5 °C 13.0 °C 1013.1 hPa West 17.7 km/h 24.5 km/h 98 % 0.5 mm
03:47 12.5 °C 13.0 °C 1013.1 hPa WSW 9.3 km/h 24.5 km/h 98 % 0.5 mm
03:53 12.5 °C 13.0 °C 1013.1 hPa West 13.0 km/h 21.2 km/h 98 % 0.3 mm
03:58 12.5 °C 13.0 °C 1013.1 hPa West 13.7 km/h 17.7 km/h 98 % 0.3 mm
04:08 12.5 °C 13.0 °C 1013.1 hPa West 16.9 km/h 16.9 km/h 98 % 0.3 mm
04:14 12.5 °C 13.0 °C 1013.1 hPa West 13.0 km/h 25.3 km/h 98 % 0.3 mm
04:19 12.6 °C 13.0 °C 1013.1 hPa West 10.1 km/h 25.3 km/h 98 % 0.3 mm
04:23 12.6 °C 13.0 °C 1013.1 hPa West 20.1 km/h 23.3 km/h 98 % 0.0 mm
04:24 12.6 °C 13.0 °C 1013.1 hPa West 17.2 km/h 23.3 km/h 98 % 0.0 mm
04:29 12.6 °C 13.0 °C 1013.1 hPa West 19.8 km/h 20.1 km/h 98 % 0.3 mm
04:35 12.6 °C 13.0 °C 1013.1 hPa West 11.1 km/h 23.8 km/h 98 % 0.3 mm
04:40 12.6 °C 13.0 °C 1013.1 hPa WSW 12.6 km/h 20.6 km/h 98 % 0.3 mm
04:46 12.6 °C 13.0 °C 1013.1 hPa West 10.1 km/h 20.6 km/h 98 % 0.3 mm
04:50 12.6 °C 13.0 °C 1013.1 hPa West 9.3 km/h 19.5 km/h 98 % 0.3 mm
05:01 12.6 °C 13.0 °C 1013.1 hPa West 11.9 km/h 17.7 km/h 98 % 0.3 mm
05:06 12.5 °C 13.0 °C 1013.1 hPa West 16.9 km/h 17.7 km/h 98 % 0.3 mm
05:21 12.5 °C 13.0 °C 1013.1 hPa WSW 16.9 km/h 19.8 km/h 98 % 0.3 mm
05:26 12.5 °C 13.0 °C 1013.1 hPa WSW 12.2 km/h 23.8 km/h 98 % 0.0 mm
05:31 12.5 °C 13.0 °C 1013.1 hPa WSW 24.5 km/h 24.5 km/h 98 % 0.0 mm
05:36 12.5 °C 13.0 °C 1013.1 hPa WSW 20.1 km/h 27.7 km/h 98 % 0.0 mm
05:41 12.5 °C 13.0 °C 1012.1 hPa West 33.1 km/h 33.1 km/h 98 % 0.0 mm
05:42 12.5 °C 13.0 °C 1012.1 hPa WSW 16.3 km/h 33.1 km/h 98 % 0.0 mm
05:52 12.5 °C 13.0 °C 1012.1 hPa WSW 16.6 km/h 27.7 km/h 98 % 0.0 mm
05:57 12.5 °C 13.0 °C 1012.1 hPa West 16.3 km/h 28.0 km/h 98 % 0.0 mm
06:02 12.5 °C 13.0 °C 1012.1 hPa WSW 23.8 km/h 28.0 km/h 98 % 0.0 mm
06:12 12.5 °C 13.0 °C 1012.1 hPa WSW 17.7 km/h 27.4 km/h 98 % 0.0 mm
06:22 12.5 °C 13.0 °C 1012.1 hPa WSW 21.2 km/h 24.8 km/h 98 % 0.0 mm
06:38 12.5 °C 13.0 °C 1012.1 hPa SW 20.1 km/h 27.7 km/h 98 % 0.0 mm
06:43 12.5 °C 13.0 °C 1012.1 hPa WSW 18.3 km/h 27.0 km/h 98 % 0.0 mm
06:48 12.5 °C 13.0 °C 1012.1 hPa WSW 21.2 km/h 23.8 km/h 98 % 0.0 mm
06:53 12.5 °C 13.0 °C 1012.1 hPa WSW 19.5 km/h 29.1 km/h 98 % 0.0 mm
06:58 12.5 °C 13.0 °C 1012.1 hPa WSW 19.8 km/h 29.1 km/h 98 % 0.0 mm
06:59 12.5 °C 13.0 °C 1012.1 hPa WSW 21.9 km/h 29.1 km/h 98 % 0.0 mm
07:04 12.5 °C 13.0 °C 1012.1 hPa WSW 16.9 km/h 28.0 km/h 98 % 0.0 mm
07:14 12.4 °C 13.0 °C 1012.1 hPa West 21.2 km/h 27.7 km/h 98 % 0.0 mm
07:19 12.4 °C 13.0 °C 1012.1 hPa West 13.0 km/h 23.8 km/h 98 % 0.0 mm
07:24 12.3 °C 13.0 °C 1012.1 hPa WSW 20.9 km/h 21.2 km/h 98 % 0.0 mm
07:29 12.2 °C 12.0 °C 1012.1 hPa WSW 21.2 km/h 21.2 km/h 98 % 0.0 mm
07:34 12.2 °C 12.0 °C 1012.1 hPa West 16.6 km/h 23.3 km/h 98 % 0.0 mm
07:39 12.1 °C 12.0 °C 1012.1 hPa WSW 15.8 km/h 23.3 km/h 98 % 0.0 mm
07:44 12.1 °C 12.0 °C 1012.1 hPa WSW 14.0 km/h 23.0 km/h 98 % 0.0 mm
07:49 12.1 °C 12.0 °C 1012.1 hPa WSW 17.2 km/h 21.2 km/h 98 % 0.0 mm
07:54 12.0 °C 12.0 °C 1012.1 hPa WSW 12.6 km/h 19.1 km/h 98 % 0.0 mm
07:59 12.0 °C 12.0 °C 1013.1 hPa WSW 11.9 km/h 20.6 km/h 98 % 0.0 mm
08:04 12.0 °C 12.0 °C 1013.1 hPa WSW 16.3 km/h 21.6 km/h 98 % 0.0 mm
08:09 11.9 °C 12.0 °C 1013.1 hPa WSW 12.6 km/h 21.6 km/h 98 % 0.0 mm
08:14 11.9 °C 12.0 °C 1013.1 hPa West 20.6 km/h 21.2 km/h 98 % 0.0 mm
08:19 11.9 °C 12.0 °C 1013.1 hPa WSW 14.3 km/h 27.0 km/h 98 % 0.0 mm
08:24 11.9 °C 12.0 °C 1013.1 hPa West 15.8 km/h 27.0 km/h 98 % 0.0 mm
08:29 11.8 °C 12.0 °C 1013.1 hPa WSW 21.2 km/h 24.8 km/h 98 % 0.0 mm
08:30 11.8 °C 12.0 °C 1013.1 hPa WSW 20.1 km/h 24.8 km/h 98 % 0.0 mm
08:35 11.8 °C 12.0 °C 1013.1 hPa WSW 12.2 km/h 24.8 km/h 98 % 0.0 mm
08:40 11.7 °C 12.0 °C 1013.1 hPa WSW 16.9 km/h 21.2 km/h 98 % 0.0 mm
08:50 11.7 °C 12.0 °C 1013.1 hPa WSW 14.0 km/h 28.5 km/h 98 % 0.0 mm
08:55 11.7 °C 12.0 °C 1013.1 hPa WSW 18.3 km/h 28.5 km/h 98 % 0.0 mm
09:05 11.7 °C 12.0 °C 1013.1 hPa WSW 17.7 km/h 25.6 km/h 98 % 0.0 mm
09:10 11.7 °C 12.0 °C 1013.1 hPa West 18.0 km/h 24.5 km/h 98 % 0.0 mm
09:15 11.7 °C 12.0 °C 1013.1 hPa West 16.3 km/h 23.3 km/h 98 % 0.0 mm
09:20 11.7 °C 12.0 °C 1013.1 hPa WSW 16.3 km/h 23.3 km/h 98 % 0.0 mm
09:35 11.7 °C 12.0 °C 1013.1 hPa WSW 10.8 km/h 20.9 km/h 98 % 0.0 mm
09:40 11.7 °C 12.0 °C 1013.1 hPa WSW 9.0 km/h 20.9 km/h 98 % 0.0 mm
09:55 11.8 °C 12.0 °C 1013.1 hPa WSW 16.6 km/h 20.9 km/h 98 % 0.0 mm
10:15 11.9 °C 12.0 °C 1013.1 hPa WSW 19.1 km/h 20.6 km/h 98 % 0.0 mm
10:35 11.9 °C 12.0 °C 1013.1 hPa WSW 13.7 km/h 16.3 km/h 98 % 0.0 mm
10:40 12.0 °C 12.0 °C 1013.1 hPa SW 10.5 km/h 16.9 km/h 98 % 0.0 mm
10:41 12.0 °C 12.0 °C 1013.1 hPa WSW 11.9 km/h 16.9 km/h 98 % 0.0 mm
10:46 12.0 °C 12.0 °C 1013.1 hPa SW 9.3 km/h 13.7 km/h 98 % 0.0 mm
10:51 12.0 °C 12.0 °C 1013.1 hPa SW 9.0 km/h 13.0 km/h 98 % 0.0 mm
10:56 12.1 °C 12.0 °C 1013.1 hPa SW 15.8 km/h 15.8 km/h 98 % 0.0 mm
11:06 12.1 °C 12.0 °C 1013.1 hPa SW 20.6 km/h 20.6 km/h 98 % 0.0 mm
11:12 12.3 °C 13.0 °C 1013.1 hPa SW 17.7 km/h 20.9 km/h 98 % 0.0 mm
11:17 12.3 °C 13.0 °C 1013.1 hPa WSW 12.2 km/h 21.2 km/h 98 % 0.0 mm
11:22 12.4 °C 12.0 °C 1013.1 hPa SW 13.0 km/h 21.2 km/h 97 % 0.0 mm
11:23 12.4 °C 12.0 °C 1013.1 hPa WSW 14.3 km/h 16.9 km/h 97 % 0.0 mm
11:33 12.4 °C 12.0 °C 1012.1 hPa SW 16.3 km/h 18.0 km/h 96 % 0.0 mm
11:43 12.3 °C 12.0 °C 1012.1 hPa WSW 18.3 km/h 23.8 km/h 95 % 0.0 mm
12:00 12.5 °C 12.0 °C 1013.1 hPa WSW 10.5 km/h 24.8 km/h 95 % 0.0 mm
12:05 12.6 °C 12.0 °C 1013.1 hPa WSW 15.4 km/h 24.8 km/h 95 % 0.0 mm
12:15 12.6 °C 12.0 °C 1013.1 hPa SW 15.4 km/h 20.1 km/h 94 % 0.0 mm
12:20 12.6 °C 12.0 °C 1013.1 hPa WSW 15.1 km/h 21.2 km/h 94 % 0.0 mm
12:25 12.6 °C 12.0 °C 1013.1 hPa SSW 14.8 km/h 21.2 km/h 94 % 0.0 mm
12:30 12.5 °C 12.0 °C 1013.1 hPa WSW 13.7 km/h 20.6 km/h 93 % 0.0 mm
12:36 12.5 °C 12.0 °C 1013.1 hPa SW 23.3 km/h 23.3 km/h 93 % 0.0 mm
12:41 12.5 °C 12.0 °C 1013.1 hPa WSW 15.8 km/h 24.8 km/h 93 % 0.0 mm
12:51 12.5 °C 12.0 °C 1013.1 hPa WSW 21.2 km/h 21.2 km/h 93 % 0.0 mm
12:56 12.5 °C 12.0 °C 1013.1 hPa WSW 11.1 km/h 21.2 km/h 93 % 0.0 mm
13:06 12.6 °C 12.0 °C 1013.1 hPa SSW 16.3 km/h 22.4 km/h 93 % 0.0 mm
13:11 12.6 °C 12.0 °C 1013.1 hPa WSW 14.0 km/h 22.4 km/h 92 % 0.0 mm
13:21 12.6 °C 12.0 °C 1013.1 hPa WSW 12.6 km/h 20.6 km/h 92 % 0.0 mm
13:31 12.6 °C 12.0 °C 1012.1 hPa WSW 14.0 km/h 17.7 km/h 91 % 0.0 mm
13:36 12.6 °C 12.0 °C 1012.1 hPa SW 13.7 km/h 17.7 km/h 91 % 0.0 mm
13:46 12.5 °C 12.0 °C 1012.1 hPa SSW 11.9 km/h 19.5 km/h 91 % 0.0 mm
13:51 12.5 °C 12.0 °C 1012.1 hPa WSW 10.5 km/h 19.5 km/h 91 % 0.0 mm
14:01 12.5 °C 12.0 °C 1012.1 hPa WSW 14.0 km/h 16.9 km/h 91 % 0.0 mm
14:06 12.5 °C 12.0 °C 1012.1 hPa SW 13.7 km/h 16.9 km/h 91 % 0.0 mm
14:11 12.5 °C 12.0 °C 1012.1 hPa WSW 15.4 km/h 17.7 km/h 91 % 0.0 mm
14:16 12.5 °C 12.0 °C 1012.1 hPa SSW 15.4 km/h 17.7 km/h 91 % 0.0 mm
14:22 12.6 °C 12.0 °C 1012.1 hPa SW 8.7 km/h 16.6 km/h 92 % 0.0 mm
14:32 12.6 °C 12.0 °C 1012.1 hPa WSW 13.7 km/h 19.5 km/h 91 % 0.0 mm
14:37 12.6 °C 12.0 °C 1012.1 hPa WSW 9.0 km/h 19.5 km/h 91 % 0.0 mm
14:47 12.7 °C 12.0 °C 1011.1 hPa SW 16.9 km/h 19.8 km/h 91 % 0.0 mm
14:52 12.7 °C 12.0 °C 1011.1 hPa WSW 11.1 km/h 19.8 km/h 91 % 0.0 mm
14:57 12.6 °C 12.0 °C 1011.1 hPa WSW 9.7 km/h 17.2 km/h 91 % 0.0 mm
15:02 12.6 °C 12.0 °C 1011.1 hPa SSW 11.6 km/h 16.9 km/h 91 % 0.0 mm
15:07 12.6 °C 12.0 °C 1011.1 hPa WSW 16.3 km/h 19.5 km/h 91 % 0.0 mm
15:12 12.6 °C 12.0 °C 1011.1 hPa WSW 14.3 km/h 19.5 km/h 91 % 0.0 mm
15:22 12.5 °C 11.0 °C 1011.1 hPa WSW 10.1 km/h 20.6 km/h 90 % 0.0 mm
15:27 12.5 °C 11.0 °C 1011.1 hPa SW 12.2 km/h 20.6 km/h 90 % 0.0 mm
15:32 12.5 °C 11.0 °C 1011.1 hPa SSW 11.9 km/h 15.8 km/h 90 % 0.0 mm
15:37 12.4 °C 11.0 °C 1011.1 hPa SW 10.1 km/h 15.8 km/h 90 % 0.0 mm
15:42 12.3 °C 11.0 °C 1010.0 hPa SW 16.9 km/h 16.9 km/h 90 % 0.0 mm
15:47 12.3 °C 11.0 °C 1010.0 hPa WSW 9.3 km/h 16.9 km/h 90 % 0.0 mm
16:02 12.2 °C 11.0 °C 1010.0 hPa SW 11.1 km/h 15.8 km/h 90 % 0.0 mm
16:12 12.1 °C 11.0 °C 1011.1 hPa SSW 9.3 km/h 18.0 km/h 90 % 0.0 mm
16:17 12.1 °C 11.0 °C 1011.1 hPa WSW 12.2 km/h 20.1 km/h 90 % 0.0 mm
16:22 12.0 °C 11.0 °C 1011.1 hPa SW 10.8 km/h 20.1 km/h 90 % 0.0 mm
16:28 12.0 °C 11.0 °C 1010.0 hPa WSW 17.7 km/h 17.7 km/h 90 % 0.0 mm
16:38 11.9 °C 11.0 °C 1010.0 hPa SW 8.7 km/h 17.2 km/h 91 % 0.0 mm
16:39 11.9 °C 11.0 °C 1010.0 hPa WSW 14.0 km/h 15.1 km/h 91 % 0.0 mm
16:44 11.9 °C 11.0 °C 1011.1 hPa SW 9.7 km/h 16.3 km/h 91 % 0.0 mm
16:49 11.9 °C 11.0 °C 1011.1 hPa SW 12.6 km/h 16.3 km/h 91 % 0.0 mm
16:54 11.9 °C 11.0 °C 1011.1 hPa SSW 11.9 km/h 17.2 km/h 91 % 0.0 mm
16:59 11.9 °C 11.0 °C 1011.1 hPa South 9.0 km/h 17.2 km/h 91 % 0.0 mm
17:04 11.9 °C 11.0 °C 1011.1 hPa SSW 15.8 km/h 16.3 km/h 91 % 0.0 mm
17:09 11.9 °C 11.0 °C 1011.1 hPa SW 14.0 km/h 15.8 km/h 91 % 0.0 mm
17:14 11.9 °C 11.0 °C 1011.1 hPa South 9.3 km/h 15.8 km/h 91 % 0.3 mm
17:25 11.8 °C 10.0 °C 1011.1 hPa SSW 8.7 km/h 16.3 km/h 91 % 0.3 mm
17:40 11.7 °C 10.0 °C 1011.1 hPa SSW 9.7 km/h 15.4 km/h 91 % 0.3 mm
17:50 11.7 °C 10.0 °C 1011.1 hPa SW 12.6 km/h 16.3 km/h 91 % 0.3 mm
17:55 11.7 °C 10.0 °C 1011.1 hPa SSW 12.6 km/h 16.6 km/h 91 % 0.3 mm
18:00 11.7 °C 10.0 °C 1011.1 hPa SW 14.8 km/h 17.7 km/h 91 % 0.3 mm
18:05 11.7 °C 10.0 °C 1011.1 hPa WSW 12.6 km/h 17.7 km/h 91 % 0.3 mm
18:10 11.7 °C 10.0 °C 1011.1 hPa SW 11.9 km/h 17.7 km/h 91 % 0.3 mm
18:25 11.6 °C 10.0 °C 1011.1 hPa WSW 12.2 km/h 17.7 km/h 91 % 0.0 mm
18:30 11.6 °C 10.0 °C 1011.1 hPa SW 10.5 km/h 17.7 km/h 91 % 0.0 mm
18:40 11.6 °C 10.0 °C 1011.1 hPa SW 12.2 km/h 15.4 km/h 91 % 0.0 mm
18:45 11.6 °C 10.0 °C 1011.1 hPa WSW 9.0 km/h 15.4 km/h 91 % 0.0 mm
18:51 11.6 °C 10.0 °C 1011.1 hPa WSW 10.5 km/h 13.7 km/h 91 % 0.0 mm
18:56 11.6 °C 10.0 °C 1011.1 hPa West 13.0 km/h 14.0 km/h 91 % 0.0 mm
19:06 11.5 °C 10.0 °C 1011.1 hPa WSW 10.5 km/h 16.6 km/h 92 % 0.0 mm
19:11 11.5 °C 10.0 °C 1010.0 hPa WSW 8.7 km/h 16.6 km/h 91 % 0.0 mm
19:16 11.5 °C 10.0 °C 1010.0 hPa SW 10.1 km/h 14.3 km/h 91 % 0.0 mm
19:21 11.5 °C 10.0 °C 1010.0 hPa SSW 10.1 km/h 13.7 km/h 91 % 0.0 mm
19:26 11.5 °C 10.0 °C 1010.0 hPa WSW 9.0 km/h 14.0 km/h 91 % 0.0 mm
19:31 11.5 °C 10.0 °C 1010.0 hPa SSW 15.8 km/h 16.3 km/h 91 % 0.0 mm
19:41 11.5 °C 10.0 °C 1010.0 hPa SSW 7.9 km/h 15.4 km/h 91 % 0.0 mm
19:46 11.5 °C 10.0 °C 1010.0 hPa SW 12.6 km/h 15.4 km/h 91 % 0.0 mm
19:56 11.5 °C 10.0 °C 1010.0 hPa SW 10.5 km/h 16.3 km/h 91 % 0.0 mm
20:06 11.5 °C 10.0 °C 1010.0 hPa SW 5.8 km/h 12.6 km/h 91 % 0.0 mm
20:11 11.5 °C 10.0 °C 1010.0 hPa SW 7.9 km/h 12.2 km/h 91 % 0.0 mm
20:16 11.5 °C 10.0 °C 1010.0 hPa SW 11.9 km/h 12.6 km/h 91 % 0.0 mm
20:21 11.5 °C 10.0 °C 1010.0 hPa SSW 10.5 km/h 14.0 km/h 90 % 0.0 mm
20:26 11.5 °C 10.0 °C 1010.0 hPa SW 10.5 km/h 14.0 km/h 90 % 0.0 mm
20:31 11.5 °C 10.0 °C 1010.0 hPa SW 8.7 km/h 13.0 km/h 90 % 0.0 mm
20:37 11.5 °C 10.0 °C 1010.0 hPa SSW 13.7 km/h 13.7 km/h 90 % 0.0 mm
20:42 11.4 °C 10.0 °C 1010.0 hPa SSW 9.3 km/h 14.0 km/h 91 % 0.0 mm
20:52 11.4 °C 10.0 °C 1010.0 hPa WSW 10.1 km/h 17.7 km/h 91 % 0.0 mm
20:57 11.3 °C 10.0 °C 1010.0 hPa SSW 6.9 km/h 14.0 km/h 91 % 0.0 mm
21:02 11.2 °C 10.0 °C 1010.0 hPa South 5.8 km/h 12.6 km/h 91 % 0.0 mm
21:07 11.2 °C 10.0 °C 1010.0 hPa SW 9.7 km/h 13.7 km/h 91 % 0.0 mm
21:12 11.2 °C 10.0 °C 1010.0 hPa South 10.1 km/h 13.7 km/h 92 % 0.0 mm
21:17 11.2 °C 10.0 °C 1010.0 hPa South 1.8 km/h 13.0 km/h 92 % 0.0 mm
21:22 11.1 °C 10.0 °C 1010.0 hPa SW 12.6 km/h 13.0 km/h 92 % 0.0 mm
21:32 11.0 °C 10.0 °C 1010.0 hPa SSW 9.7 km/h 12.6 km/h 92 % 0.0 mm
21:37 11.0 °C 10.0 °C 1010.0 hPa SSW 10.5 km/h 14.0 km/h 92 % 0.0 mm
21:47 11.0 °C 10.0 °C 1010.0 hPa SSW 10.1 km/h 15.8 km/h 93 % 0.0 mm
21:52 11.0 °C 10.0 °C 1010.0 hPa SSW 10.5 km/h 13.7 km/h 93 % 0.0 mm
22:02 11.0 °C 10.0 °C 1009.0 hPa South 3.5 km/h 10.5 km/h 93 % 0.0 mm
22:07 11.1 °C 10.0 °C 1009.0 hPa SSW 9.3 km/h 11.9 km/h 93 % 0.0 mm
22:12 11.1 °C 10.0 °C 1009.0 hPa SSW 1.4 km/h 13.0 km/h 93 % 0.0 mm
22:17 11.1 °C 10.0 °C 1009.0 hPa SSW 4.3 km/h 15.1 km/h 93 % 0.0 mm
22:22 11.1 °C 10.0 °C 1009.0 hPa SW 14.0 km/h 16.9 km/h 93 % 0.0 mm
22:27 11.2 °C 10.0 °C 1010.0 hPa SSW 9.7 km/h 16.9 km/h 93 % 0.0 mm
22:32 11.2 °C 10.0 °C 1010.0 hPa SW 12.2 km/h 16.6 km/h 93 % 0.0 mm
22:37 11.2 °C 10.0 °C 1010.0 hPa SSW 8.7 km/h 16.6 km/h 92 % 0.0 mm
22:42 11.3 °C 10.0 °C 1009.0 hPa SSW 10.5 km/h 17.7 km/h 92 % 0.0 mm
22:48 11.3 °C 10.0 °C 1009.0 hPa South 12.2 km/h 17.7 km/h 92 % 0.0 mm
22:53 11.3 °C 10.0 °C 1009.0 hPa South 11.9 km/h 20.1 km/h 92 % 0.0 mm
22:58 11.3 °C 10.0 °C 1008.0 hPa SSW 5.8 km/h 20.1 km/h 92 % 0.0 mm
23:13 11.4 °C 10.0 °C 1009.0 hPa SSW 9.7 km/h 16.6 km/h 92 % 0.0 mm
23:18 11.4 °C 10.0 °C 1009.0 hPa SW 11.9 km/h 16.6 km/h 91 % 0.0 mm
23:28 11.4 °C 10.0 °C 1009.0 hPa SSW 14.0 km/h 16.9 km/h 91 % 0.0 mm
23:33 11.4 °C 10.0 °C 1009.0 hPa SSW 12.2 km/h 15.8 km/h 91 % 0.0 mm
23:39 11.4 °C 10.0 °C 1009.0 hPa SSW 12.2 km/h 19.5 km/h 91 % 0.0 mm
23:43 11.4 °C 10.0 °C 1009.0 hPa SSW 17.2 km/h 19.5 km/h 91 % 0.0 mm
23:49 11.4 °C 10.0 °C 1009.0 hPa SSW 16.6 km/h 20.9 km/h 91 % 0.0 mm
23:54 11.4 °C 10.0 °C 1009.0 hPa SSW 13.0 km/h 23.0 km/h 91 % 0.0 mm
Le Gheer Warneton
Courtoisie de Weather Underground - 2 mb

Mise a jour : 17-12-17 09:08:12
Généré par Cumulus 1.9.4 (1099)